Baton Rouge, LA

7:10 AM CST on December 16, 2017 (GMT -0600)
Baton Rouge Metro-Ryan

Weather History for KBTR - February, 2014

Change the Weather History Date:

Tuesday, February 4, 2014

  Actual Average Record
Temperature  
Mean Temperature 55 °F 53 °F  
Max Temperature 67 °F 64 °F 85 °F (1957)
Min Temperature 42 °F 43 °F 15 °F (1996)
Degree Days  
Heating Degree Days 10 12  
Month to date heating degree days 43 51  
Since 1 July heating degree days 1397 1091  
Cooling Degree Days 0 1  
Month to date cooling degree days 0 2  
Year to date cooling degree days 0 15  
Growing Degree Days 4 (Base 50)    
Moisture  
Dew Point 53 °F    
Average Humidity 94    
Maximum Humidity 100    
Minimum Humidity 87    
Precipitation  
Precipitation 1.66 in 0.18 in 2.82 in (1986)
Month to date precipitation 1.97 0.77  
Year to date precipitation 4.06 6.49  
Snow  
Snow 0.00 in - - ()
Month to date snowfall 0.0  
Since 1 July snowfall 0.4  
Snow Depth 0.00 in    
Sea Level Pressure  
Sea Level Pressure 29.91 in    
Wind  
Wind Speed 9 mph (East)    
Max Wind Speed 26 mph    
Max Gust Speed 35 mph    
Visibility 4 miles    
Events Fog , Rain , Thunderstorm    
T = Trace of Precipitation, MM = Missing Value Source: NWS Daily Summary

Daily Weather History Graph

Daily Weather History Graph

Search for Another Location

Airport or City:

Trip Planner

Search our weather history database for the weather conditions in past years. The results will help you decide how hot, cold, wet, or windy it might be!

Date:

Astronomy

Feb. 04, 2014 Rise Set
Actual Time 6:53 AM CST 5:43 PM CST
Civil Twilight 6:28 AM CST 6:08 PM CST
Nautical Twilight 6:00 AM CST 6:37 PM CST
Astronomical Twilight 5:31 AM CST 7:05 PM CST
Moon 9:57 AM CST (2/4) 11:10 PM CST (2/4)
Length of Visible Light 11h 40m
Length of Day
10h 49m
Waxing Crescent, 29% of the Moon is Illuminated
Feb 4
Waxing Crescent
Feb 6
First Quarter
Feb 14
Full
Feb 22
Last Quarter
Mar 1
New

Hourly Weather History & Observations

Time (CST) Temp. Windchill Dew Point Humidity Pressure Visibility Wind Dir Wind Speed Gust Speed Precip Events Conditions
12:53 AM 42.1 °F 36.1 °F 41.0 °F 96% 30.07 in - ENE 10.4 mph - N/A   Overcast
1:53 AM 43.0 °F 37.7 °F 41.0 °F 93% 30.07 in - ENE 9.2 mph - N/A   Overcast
2:53 AM 43.0 °F 37.2 °F 41.0 °F 93% 30.03 in - East 10.4 mph - N/A   Overcast
3:53 AM 43.0 °F 38.2 °F 42.1 °F 97% 30.03 in - East 8.1 mph - N/A   Overcast
4:53 AM 43.0 °F 38.8 °F 42.1 °F 97% 30.02 in 1.0 mi NE 6.9 mph - N/A   Overcast
5:53 AM 43.0 °F 38.2 °F 42.1 °F 97% 30.02 in 1.0 mi East 8.1 mph - N/A   Overcast
6:53 AM 43.0 °F 38.2 °F 42.1 °F 97% 30.01 in 1.0 mi ENE 8.1 mph - N/A   Overcast
7:00 AM 43.0 °F 38.2 °F 42.1 °F 97% 30.01 in 0.5 mi East 8.1 mph - N/A Fog Fog
7:53 AM 44.1 °F 39.0 °F 43.0 °F 96% 30.02 in 0.5 mi East 9.2 mph - N/A Fog Fog
8:53 AM 45.0 °F 40.1 °F 44.1 °F 97% 30.01 in 0.8 mi East 9.2 mph - N/A   Overcast
9:53 AM 46.9 °F - 46.0 °F 97% 30.01 in 1.0 mi East 8.1 mph - N/A   Overcast
10:43 AM 48.9 °F - 48.0 °F 97% 29.99 in 2.0 mi East 5.8 mph - N/A   Overcast
10:53 AM 48.9 °F - 48.0 °F 97% 29.98 in 2.0 mi East 6.9 mph - N/A   Overcast
11:53 AM 51.1 °F - 48.9 °F 92% 29.96 in 1.0 mi ESE 10.4 mph - N/A   Overcast
12:53 PM 53.1 °F - 52.0 °F 96% 29.89 in 1.0 mi ESE 10.4 mph - N/A   Overcast
1:53 PM 59.0 °F - 55.9 °F 90% 29.86 in 3.0 mi SE 12.7 mph 20.7 mph N/A   Overcast
2:03 PM 60.1 °F - 57.0 °F 90% 29.86 in 3.0 mi ESE 15.0 mph - N/A   Overcast
2:53 PM 61.0 °F - 57.9 °F 90% 29.83 in 3.0 mi SE 13.8 mph - N/A   Overcast
3:48 PM 62.6 °F - 60.8 °F 94% 29.81 in 1.5 mi SE 12.7 mph 20.7 mph N/A   Overcast
3:53 PM 62.1 °F - 60.1 °F 93% 29.81 in 1.5 mi SE 11.5 mph - N/A   Overcast
4:50 PM 62.6 °F - 62.6 °F 100% 29.77 in 1.0 mi ESE 11.5 mph - 0.00 in Rain , Thunderstorm Thunderstorms and Rain
4:53 PM 64.0 °F - 62.1 °F 93% 29.77 in 1.0 mi ESE 11.5 mph - 0.01 in Rain , Thunderstorm Thunderstorms and Rain
5:08 PM 64.0 °F - 63.0 °F 96% 29.77 in 1.0 mi SE 9.2 mph - 0.11 in Rain , Thunderstorm Thunderstorms and Rain
5:17 PM 64.0 °F - 63.0 °F 96% 29.75 in 0.5 mi ESE 12.7 mph - 0.31 in Fog , Rain , Thunderstorm Heavy Thunderstorms and Rain
5:33 PM 64.9 °F - 64.0 °F 97% 29.80 in 0.5 mi WSW 6.9 mph - 1.18 in Fog , Rain , Thunderstorm Thunderstorms and Rain
5:38 PM 64.9 °F - 64.0 °F 97% 29.79 in 3.0 mi WSW 3.5 mph - 1.33 in Rain , Thunderstorm Thunderstorms and Rain
5:44 PM 64.9 °F - 64.0 °F 97% 29.80 in 1.0 mi West 3.5 mph - 1.35 in Rain , Thunderstorm Thunderstorms and Rain
5:50 PM 64.4 °F - 62.6 °F 94% 29.80 in 1.0 mi Variable 4.6 mph - 1.40 in Rain , Thunderstorm Heavy Thunderstorms and Rain
5:53 PM 64.9 °F - 63.0 °F 93% 29.80 in 1.0 mi West 11.5 mph - 1.41 in Rain , Thunderstorm Heavy Thunderstorms and Rain
6:11 PM 66.0 °F - 64.9 °F 96% 29.81 in 10.0 mi SW 18.4 mph 24.2 mph 0.19 in Rain , Thunderstorm Thunderstorms and Rain
6:17 PM 66.9 °F - 64.9 °F 93% 29.81 in 10.0 mi SW 16.1 mph 24.2 mph 0.20 in Rain , Thunderstorm Thunderstorms and Rain
6:30 PM 63.0 °F - 61.0 °F 93% 29.84 in 10.0 mi WNW 17.3 mph 34.5 mph 0.23 in Rain Rain
6:37 PM 61.0 °F - 59.0 °F 93% 29.85 in 10.0 mi NW 15.0 mph 27.6 mph 0.23 in Rain Light Rain
6:53 PM 57.9 °F - 55.9 °F 93% 29.87 in 5.0 mi WNW 15.0 mph 21.9 mph 0.24 in Rain Light Rain
7:53 PM 54.0 °F - 52.0 °F 93% 29.90 in 5.0 mi WNW 8.1 mph - 0.00 in   Overcast
8:22 PM 52.0 °F - 50.0 °F 93% 29.93 in 5.0 mi WNW 6.9 mph - N/A   Overcast
8:53 PM 50.0 °F - 48.9 °F 96% 29.95 in 7.0 mi WNW 6.9 mph - 0.00 in   Overcast
9:53 PM 50.0 °F - 48.0 °F 93% 29.96 in 10.0 mi NW 4.6 mph - N/A   Mostly Cloudy
10:06 PM 48.9 °F - 46.9 °F 93% 29.97 in 10.0 mi NW 6.9 mph - N/A   Clear
10:44 PM 46.9 °F - 44.1 °F 90% 29.99 in 10.0 mi NW 8.1 mph - N/A   Mostly Cloudy
10:53 PM 46.9 °F - 45.0 °F 93% 29.99 in 10.0 mi NNW 5.8 mph - N/A   Mostly Cloudy
11:53 PM 45.0 °F 40.1 °F 42.1 °F 90% 30.04 in 10.0 mi NW 9.2 mph - N/A   Overcast